Cancun, Mexico

2:14 AM on March 24, 2017 (GMT +0000)
Cancun International

Weather History for MMUN - August, 2013

Change the Weather History Date:

Tuesday, August 20, 2013

  Actual Average Record
Temperature  
Mean Temperature 82 °F -  
Max Temperature 87 °F 89 °F 93 °F (1997)
Min Temperature 78 °F 73 °F 69 °F (1996)
Cooling Degree Days 18    
Growing Degree Days 32 (Base 50)    
Moisture  
Dew Point 76 °F    
Average Humidity 82    
Maximum Humidity 94    
Minimum Humidity 62    
Precipitation  
Precipitation 0.00 in - - ()
Sea Level Pressure  
Sea Level Pressure 29.94 in    
Wind  
Wind Speed 3 mph ()    
Max Wind Speed 12 mph    
Max Gust Speed 26 mph    
Visibility 7.0 miles    
Events      
Averages and records for this station are not official NWS values.
T = Trace of Precipitation, MM = Missing Value Source: Averaged Metar Reports

Daily Weather History Graph

Daily Weather History Graph

Search for Another Location

Airport or City:

Trip Planner

Search our weather history database for the weather conditions in past years. The results will help you decide how hot, cold, wet, or windy it might be!

Date:

Astronomy

Aug. 20, 2013 Rise Set
Actual Time 6:27 AM CDT 7:13 PM CDT
Civil Twilight 6:05 AM CDT 7:36 PM CDT
Nautical Twilight 5:38 AM CDT 8:03 PM CDT
Astronomical Twilight 5:10 AM CDT 8:30 PM CDT
Moon 6:52 PM CDT (8/20) 5:54 AM CDT (8/20)
Length of Visible Light 13h 31m
Length of Day
12h 45m
Full, 100% of the Moon is Illuminated
Aug 20
Full
Aug 20
Full
Aug 28
Last Quarter
Sep 5
New
Sep 12
First Quarter

Hourly Weather History & Observations

Time (CDT) Temp. Heat Index Dew Point Humidity Pressure Visibility Wind Dir Wind Speed Gust Speed Precip Events Conditions
12:47 AM 80.6 °F 86.2 °F 75.2 °F 84% 29.94 in 7.0 mi East 3.5 mph - N/A   Mostly Cloudy
1:42 AM 78.8 °F - 75.2 °F 89% 29.92 in 7.0 mi Calm Calm - N/A   Mostly Cloudy
2:45 AM 80.6 °F 87.1 °F 77.0 °F 89% 29.91 in 7.0 mi Calm Calm - N/A   Mostly Cloudy
3:47 AM 78.8 °F - 77.0 °F 94% 29.92 in 7.0 mi Calm Calm - N/A   Partly Cloudy
4:43 AM 78.8 °F - 75.2 °F 89% 29.91 in 7.0 mi Calm Calm - N/A   Scattered Clouds
5:45 AM 78.8 °F - 75.2 °F 89% 29.92 in 7.0 mi Calm Calm - N/A   Mostly Cloudy
6:40 AM 78.8 °F - 75.2 °F 89% 29.93 in 7.0 mi Calm Calm - N/A   Mostly Cloudy
7:48 AM 82.4 °F 90.9 °F 77.0 °F 84% 29.95 in 7.0 mi Calm Calm - N/A   Mostly Cloudy
8:46 AM 80.6 °F 86.2 °F 75.2 °F 84% 29.96 in 7.0 mi NE 3.5 mph - N/A   Mostly Cloudy
9:41 AM 86.0 °F 96.9 °F 77.0 °F 74% 29.96 in 7.0 mi NE 5.8 mph - N/A   Mostly Cloudy
10:48 AM 86.0 °F 96.9 °F 77.0 °F 74% 29.97 in 7.0 mi ENE 9.2 mph - N/A   Mostly Cloudy
11:40 AM 87.8 °F 95.6 °F 73.4 °F 62% 29.97 in 7.0 mi NE 5.8 mph - N/A   Mostly Cloudy
12:46 PM 86.0 °F 96.9 °F 77.0 °F 74% 29.96 in 7.0 mi NNE 4.6 mph - N/A   Mostly Cloudy
1:40 PM 78.8 °F - 73.4 °F 83% 29.96 in 7.0 mi ESE 11.5 mph 26.5 mph N/A   Mostly Cloudy
2:40 PM 82.4 °F 88.2 °F 73.4 °F 74% 29.93 in 7.0 mi NNE 6.9 mph - N/A   Mostly Cloudy
3:40 PM 86.0 °F 95.1 °F 75.2 °F 70% 29.93 in 7.0 mi NE 6.9 mph - N/A   Mostly Cloudy
4:43 PM 86.0 °F 95.1 °F 75.2 °F 70% 29.92 in 7.0 mi ESE 6.9 mph - N/A   Mostly Cloudy
5:44 PM 84.2 °F 94.1 °F 77.0 °F 79% 29.93 in 7.0 mi NNE 2.3 mph - N/A   Mostly Cloudy
6:40 PM 82.4 °F 90.9 °F 77.0 °F 84% 29.94 in 7.0 mi NNE 2.3 mph - N/A   Mostly Cloudy
7:41 PM 80.6 °F 87.1 °F 77.0 °F 89% 29.94 in 7.0 mi North 2.3 mph - N/A   Mostly Cloudy
8:46 PM 80.6 °F 87.1 °F 77.0 °F 89% 29.95 in 7.0 mi NE 2.3 mph - N/A   Scattered Clouds
9:46 PM 80.6 °F 87.1 °F 77.0 °F 89% 29.96 in 7.0 mi NE 3.5 mph - N/A   Scattered Clouds
10:42 PM 80.6 °F 87.1 °F 77.0 °F 89% 29.98 in 7.0 mi NNE 3.5 mph - N/A   Scattered Clouds
11:43 PM 78.8 °F - 75.2 °F 89% 30.00 in 7.0 mi Calm Calm - N/A   Partly Cloudy